Year,Month,Day,Hour,Minute,Value (Times are PST for temperature in C)
2006,07,02,00,00,18.70
2006,07,02,00,01,18.80
2006,07,02,00,02,18.80
2006,07,02,00,03,18.80
2006,07,02,00,04,18.90
2006,07,02,00,05,18.90
2006,07,02,00,06,18.80
2006,07,02,00,07,18.70
2006,07,02,00,08,18.60
2006,07,02,00,09,18.30
2006,07,02,00,10,18.10
2006,07,02,00,11,18.00
2006,07,02,00,12,17.70
2006,07,02,01,02,15.90
2006,07,02,01,03,15.80
2006,07,02,01,04,15.80
2006,07,02,01,05,15.80
2006,07,02,01,06,15.80
2006,07,02,01,07,15.80
2006,07,02,01,08,15.80
2006,07,02,01,09,15.80
2006,07,02,01,10,15.70
2006,07,02,01,11,15.70
2006,07,02,01,12,15.70
2006,07,02,01,13,15.60
2006,07,02,01,14,15.60
2006,07,02,01,15,15.60
2006,07,02,01,16,15.60
2006,07,02,01,17,15.50
2006,07,02,01,18,15.50
2006,07,02,01,19,15.50
2006,07,02,01,20,15.40
2006,07,02,01,21,15.30
2006,07,02,01,22,15.30
2006,07,02,01,23,15.30
2006,07,02,01,24,15.30
2006,07,02,01,25,15.30
2006,07,02,01,26,15.20
2006,07,02,01,27,15.20
2006,07,02,01,28,15.20
2006,07,02,01,29,15.10
2006,07,02,01,30,15.10
2006,07,02,01,31,15.10
2006,07,02,01,32,15.10
2006,07,02,01,33,15.10
2006,07,02,01,34,15.00
2006,07,02,01,35,15.00
2006,07,02,01,36,15.00
2006,07,02,01,37,15.00
2006,07,02,01,38,14.90
2006,07,02,01,39,14.90
2006,07,02,01,40,14.90
2006,07,02,01,41,14.90
2006,07,02,01,42,14.80
2006,07,02,01,43,14.80
2006,07,02,01,44,14.80
2006,07,02,01,45,14.80
2006,07,02,01,46,14.80
2006,07,02,01,47,14.80
2006,07,02,01,48,14.80
2006,07,02,01,49,14.70
2006,07,02,01,50,14.70
2006,07,02,01,51,14.70
2006,07,02,01,52,14.70
2006,07,02,01,53,14.60
2006,07,02,01,54,14.60
2006,07,02,01,55,14.50
2006,07,02,01,56,14.50
2006,07,02,01,57,14.50
2006,07,02,01,58,14.50
2006,07,02,01,59,14.50
2006,07,02,02,00,14.40
2006,07,02,02,01,14.40
2006,07,02,02,02,14.40
2006,07,02,02,03,14.40
2006,07,02,02,04,14.40
2006,07,02,02,05,14.30
2006,07,02,02,06,14.30
2006,07,02,02,07,14.30
2006,07,02,02,08,14.30
2006,07,02,02,09,14.20
2006,07,02,02,10,14.20
2006,07,02,02,11,14.20
2006,07,02,02,12,14.20
2006,07,02,02,13,14.20
2006,07,02,02,14,14.20
2006,07,02,02,15,14.20
2006,07,02,02,16,14.20
2006,07,02,02,17,14.20
2006,07,02,02,18,14.10
2006,07,02,02,19,14.10
2006,07,02,02,20,14.10
2006,07,02,02,21,14.10
2006,07,02,02,22,14.10
2006,07,02,02,23,14.10
2006,07,02,02,24,14.00
2006,07,02,02,25,14.00
2006,07,02,02,26,14.00
2006,07,02,02,27,14.00
2006,07,02,02,28,13.90
2006,07,02,02,29,13.90
2006,07,02,02,30,13.90
2006,07,02,02,31,13.80
2006,07,02,02,32,13.80
2006,07,02,02,33,13.80
2006,07,02,02,34,13.80
2006,07,02,02,35,13.70
2006,07,02,02,36,13.70
2006,07,02,02,37,13.70
2006,07,02,02,38,13.70
2006,07,02,02,39,13.70
2006,07,02,02,40,13.70
2006,07,02,02,41,13.70
2006,07,02,02,42,13.70
2006,07,02,02,43,13.70
2006,07,02,02,44,13.70
2006,07,02,02,45,13.70
2006,07,02,02,46,13.70
2006,07,02,02,47,13.70
2006,07,02,02,48,13.70
2006,07,02,02,49,13.70
2006,07,02,02,50,13.60
2006,07,02,02,51,13.60
2006,07,02,02,52,13.60
2006,07,02,02,53,13.60
2006,07,02,02,54,13.60
2006,07,02,02,55,13.60
2006,07,02,02,56,13.60
2006,07,02,02,57,13.50
2006,07,02,02,58,13.50
2006,07,02,02,59,13.50
2006,07,02,03,00,13.50
2006,07,02,03,01,13.50
2006,07,02,03,02,13.50
2006,07,02,03,03,13.40
2006,07,02,03,04,13.40
2006,07,02,03,05,13.40
2006,07,02,03,06,13.40
2006,07,02,03,07,13.40
2006,07,02,03,08,13.40
2006,07,02,03,09,13.30
2006,07,02,03,10,13.30
2006,07,02,03,11,13.30
2006,07,02,03,12,13.30
2006,07,02,03,13,13.30
2006,07,02,03,14,13.30
2006,07,02,03,15,13.30
2006,07,02,03,16,13.30
2006,07,02,03,17,13.30
2006,07,02,03,18,13.30
2006,07,02,03,19,13.30
2006,07,02,03,20,13.30
2006,07,02,03,21,13.20
2006,07,02,03,22,13.20
2006,07,02,03,23,13.20
2006,07,02,03,24,13.20
2006,07,02,03,25,13.20
2006,07,02,03,26,13.20
2006,07,02,03,27,13.20
2006,07,02,03,28,13.10
2006,07,02,03,29,13.10
2006,07,02,03,30,13.10
2006,07,02,03,31,13.10
2006,07,02,03,32,13.10
2006,07,02,03,33,13.10
2006,07,02,03,34,13.10
2006,07,02,03,35,13.10
2006,07,02,03,36,13.10
2006,07,02,03,37,13.10
2006,07,02,03,38,13.00
2006,07,02,03,39,13.00
2006,07,02,03,40,13.00
2006,07,02,03,41,13.00
2006,07,02,03,42,13.00
2006,07,02,03,43,12.90
2006,07,02,03,44,12.90
2006,07,02,03,45,12.90
2006,07,02,03,46,12.90
2006,07,02,03,47,12.90
2006,07,02,03,48,12.90
2006,07,02,03,49,12.90
2006,07,02,03,50,12.80
2006,07,02,03,51,12.80
2006,07,02,03,52,12.80
2006,07,02,03,53,12.80
2006,07,02,03,54,12.80
2006,07,02,03,55,12.80
2006,07,02,03,56,12.80
2006,07,02,03,57,12.80
2006,07,02,03,58,12.80
2006,07,02,03,59,12.70
2006,07,02,04,00,12.70
2006,07,02,04,01,12.70
2006,07,02,04,02,12.70
2006,07,02,04,03,12.70
2006,07,02,04,04,12.70
2006,07,02,04,05,12.70
2006,07,02,04,06,12.70
2006,07,02,04,07,12.70
2006,07,02,04,08,12.70
2006,07,02,04,09,12.70
2006,07,02,04,10,12.70
2006,07,02,04,11,12.70
2006,07,02,04,12,12.70
2006,07,02,04,13,12.60
2006,07,02,04,14,12.60
2006,07,02,04,15,12.60
2006,07,02,04,16,12.60
2006,07,02,04,17,12.60
2006,07,02,04,18,12.50
2006,07,02,04,19,12.50
2006,07,02,04,20,12.50
2006,07,02,04,21,12.50
2006,07,02,04,22,12.50
2006,07,02,04,23,12.40
2006,07,02,04,24,12.40
2006,07,02,04,25,12.40
2006,07,02,04,26,12.40
2006,07,02,04,27,12.40
2006,07,02,04,28,12.40
2006,07,02,04,29,12.40
2006,07,02,04,30,12.30
2006,07,02,04,31,12.30
2006,07,02,04,32,12.30
2006,07,02,04,33,12.30
2006,07,02,04,34,12.30
2006,07,02,04,35,12.30
2006,07,02,04,36,12.30
2006,07,02,04,37,12.30
2006,07,02,04,38,12.30
2006,07,02,04,39,12.30
2006,07,02,04,40,12.20
2006,07,02,04,41,12.20
2006,07,02,04,42,12.20
2006,07,02,04,43,12.20
2006,07,02,04,44,12.20
2006,07,02,04,45,12.20
2006,07,02,04,46,12.10
2006,07,02,04,47,12.10
2006,07,02,04,48,12.10
2006,07,02,04,49,12.10
2006,07,02,04,50,12.10
2006,07,02,04,51,12.10
2006,07,02,04,52,12.10
2006,07,02,04,53,12.10
2006,07,02,04,54,12.10
2006,07,02,04,55,12.10
2006,07,02,04,56,12.10
2006,07,02,04,57,12.10
2006,07,02,04,58,12.10
2006,07,02,04,59,12.10
2006,07,02,05,00,12.10
2006,07,02,05,01,12.00
2006,07,02,05,02,12.00
2006,07,02,05,03,12.00
2006,07,02,05,04,12.00
2006,07,02,05,05,12.00
2006,07,02,05,06,12.00
2006,07,02,05,07,12.00
2006,07,02,05,08,11.90
2006,07,02,05,09,11.90
2006,07,02,05,10,11.90
2006,07,02,05,11,11.90
2006,07,02,05,12,11.90
2006,07,02,05,13,11.90
2006,07,02,05,14,11.90
2006,07,02,05,15,11.90
2006,07,02,05,16,11.90
2006,07,02,05,17,11.90
2006,07,02,05,18,12.00
2006,07,02,05,19,12.00
2006,07,02,05,20,12.00
2006,07,02,05,21,12.00
2006,07,02,05,22,12.00
2006,07,02,05,23,12.00
2006,07,02,05,24,12.00
2006,07,02,05,25,12.00
2006,07,02,05,26,12.00
2006,07,02,05,27,12.00
2006,07,02,05,28,11.90
2006,07,02,05,29,11.90
2006,07,02,05,30,11.90
2006,07,02,05,31,11.90
2006,07,02,05,32,11.90
2006,07,02,05,33,11.90
2006,07,02,05,34,11.90
2006,07,02,05,35,11.90
2006,07,02,05,36,11.80
2006,07,02,05,37,11.80
2006,07,02,05,38,11.80
2006,07,02,05,39,11.80
2006,07,02,05,40,11.80
2006,07,02,05,41,11.80
2006,07,02,05,42,11.80
2006,07,02,05,43,11.80
2006,07,02,05,44,11.80
2006,07,02,05,45,11.80
2006,07,02,05,46,11.80
2006,07,02,05,47,11.80
2006,07,02,05,48,11.80
2006,07,02,05,49,11.80
2006,07,02,05,50,11.80
2006,07,02,05,51,11.80
2006,07,02,05,52,11.80
2006,07,02,05,53,11.80
2006,07,02,05,54,11.80
2006,07,02,05,55,11.80
2006,07,02,05,56,11.80
2006,07,02,05,57,11.80
2006,07,02,05,58,11.80
2006,07,02,05,59,11.80
2006,07,02,06,00,11.80
2006,07,02,06,01,11.80
2006,07,02,06,02,11.80
2006,07,02,06,03,11.80
2006,07,02,06,04,11.80
2006,07,02,06,05,11.80
2006,07,02,06,06,11.80
2006,07,02,06,07,11.80
2006,07,02,06,08,11.80
2006,07,02,06,09,11.80
2006,07,02,06,10,11.80
2006,07,02,06,11,11.80
2006,07,02,06,12,11.90
2006,07,02,06,13,11.90
2006,07,02,06,14,11.90
2006,07,02,06,15,11.90
2006,07,02,06,16,11.90
2006,07,02,06,17,11.90
2006,07,02,06,18,12.00
2006,07,02,06,19,12.00
2006,07,02,06,20,12.00
2006,07,02,06,21,12.00
2006,07,02,06,22,12.10
2006,07,02,06,23,12.10
2006,07,02,06,24,12.10
2006,07,02,06,25,12.20
2006,07,02,06,26,12.20
2006,07,02,06,27,12.20
2006,07,02,06,28,12.30
2006,07,02,06,29,12.30
2006,07,02,06,30,12.30
2006,07,02,06,31,12.30
2006,07,02,06,32,12.30
2006,07,02,06,33,12.30
2006,07,02,06,34,12.30
2006,07,02,06,35,12.40
2006,07,02,06,36,12.40
2006,07,02,06,37,12.40
2006,07,02,06,38,12.50
2006,07,02,06,39,12.50
2006,07,02,06,40,12.50
2006,07,02,06,41,12.50
2006,07,02,06,42,12.50
2006,07,02,06,43,12.60
2006,07,02,06,44,12.60
2006,07,02,06,45,12.60
2006,07,02,06,46,12.60
2006,07,02,06,47,12.70
2006,07,02,06,48,12.70
2006,07,02,06,49,12.70
2006,07,02,06,50,12.80
2006,07,02,06,51,12.80
2006,07,02,06,52,12.80
2006,07,02,06,53,12.80
2006,07,02,06,54,12.80
2006,07,02,06,55,12.80
2006,07,02,06,56,12.90
2006,07,02,06,57,13.00
2006,07,02,06,58,13.10
2006,07,02,06,59,13.10
2006,07,02,07,00,13.20
2006,07,02,07,01,13.30
2006,07,02,07,02,13.30
2006,07,02,07,03,13.30
2006,07,02,07,04,13.40
2006,07,02,07,05,13.40
2006,07,02,07,06,13.50
2006,07,02,07,07,13.50
2006,07,02,07,08,13.50
2006,07,02,07,09,13.60
2006,07,02,07,10,13.70
2006,07,02,07,11,13.70
2006,07,02,07,12,13.70
2006,07,02,07,13,13.70
2006,07,02,07,14,13.70
2006,07,02,07,15,13.80
2006,07,02,07,16,13.80
2006,07,02,07,17,13.90
2006,07,02,07,18,13.90
2006,07,02,07,19,13.90
2006,07,02,07,20,14.00
2006,07,02,07,21,14.00
2006,07,02,07,22,14.00
2006,07,02,07,23,14.00
2006,07,02,07,24,14.00
2006,07,02,07,25,14.10
2006,07,02,07,26,14.10
2006,07,02,07,27,14.10
2006,07,02,07,28,14.20
2006,07,02,07,29,14.20
2006,07,02,07,30,14.20
2006,07,02,07,31,14.20
2006,07,02,07,32,14.20
2006,07,02,07,33,14.20
2006,07,02,07,34,14.20
2006,07,02,07,35,14.30
2006,07,02,07,36,14.30
2006,07,02,07,37,14.40
2006,07,02,07,38,14.40
2006,07,02,07,39,14.40
2006,07,02,07,40,14.50
2006,07,02,07,41,14.50
2006,07,02,07,42,14.50
2006,07,02,07,43,14.50
2006,07,02,07,44,14.50
2006,07,02,07,45,14.60
2006,07,02,07,46,14.60
2006,07,02,07,47,14.60
2006,07,02,07,48,14.70
2006,07,02,07,49,14.70
2006,07,02,07,50,14.80
2006,07,02,07,51,14.80
2006,07,02,07,52,14.90
2006,07,02,07,53,14.90
2006,07,02,07,54,15.00
2006,07,02,07,55,15.10
2006,07,02,07,56,15.20
2006,07,02,07,57,15.20
2006,07,02,07,58,15.30
2006,07,02,07,59,15.30
2006,07,02,08,00,15.40
2006,07,02,08,01,15.40
2006,07,02,08,02,15.50
2006,07,02,08,03,15.50
2006,07,02,08,04,15.60
2006,07,02,08,05,15.60
2006,07,02,08,06,15.70
2006,07,02,08,07,15.70
2006,07,02,08,08,15.80
2006,07,02,08,09,15.80
2006,07,02,08,10,15.80
2006,07,02,08,11,15.80
2006,07,02,08,12,15.80
2006,07,02,08,13,15.90
2006,07,02,08,14,15.90
2006,07,02,08,15,16.00
2006,07,02,08,16,16.10
2006,07,02,08,17,16.10
2006,07,02,08,18,16.20
2006,07,02,08,19,16.30
2006,07,02,08,20,16.30
2006,07,02,08,21,16.40
2006,07,02,08,22,16.40
2006,07,02,08,23,16.50
2006,07,02,08,24,16.60
2006,07,02,08,25,16.60
2006,07,02,08,26,16.70
2006,07,02,08,27,16.70
2006,07,02,08,28,16.70
2006,07,02,08,29,16.70
2006,07,02,08,30,16.80
2006,07,02,08,31,16.80
2006,07,02,08,32,16.80
2006,07,02,08,33,16.90
2006,07,02,08,34,16.90
2006,07,02,08,35,16.90
2006,07,02,08,36,16.90
2006,07,02,08,37,16.90
2006,07,02,08,38,16.90
2006,07,02,08,39,17.00
2006,07,02,08,40,17.00
2006,07,02,08,41,17.00
2006,07,02,08,42,17.00
2006,07,02,08,43,17.00
2006,07,02,08,44,17.00
2006,07,02,08,45,17.10
2006,07,02,08,46,17.10
2006,07,02,08,47,17.10
2006,07,02,08,48,17.10
2006,07,02,08,49,17.20
2006,07,02,08,50,17.20
2006,07,02,08,51,17.20
2006,07,02,08,52,17.20
2006,07,02,08,53,17.20
2006,07,02,08,54,17.20
2006,07,02,08,55,17.30
2006,07,02,08,56,17.30
2006,07,02,08,57,17.40
2006,07,02,08,58,17.50
2006,07,02,08,59,17.60
2006,07,02,09,00,17.60
2006,07,02,09,01,17.70
2006,07,02,09,02,17.70
2006,07,02,09,03,17.60
2006,07,02,09,04,17.60
2006,07,02,09,05,17.60
2006,07,02,09,06,17.60
2006,07,02,09,07,17.60
2006,07,02,09,08,17.50
2006,07,02,09,09,17.50
2006,07,02,09,10,17.50
2006,07,02,09,11,17.50
2006,07,02,09,12,17.50
2006,07,02,09,13,17.50
2006,07,02,09,14,17.50
2006,07,02,09,15,17.50
2006,07,02,09,16,17.40
2006,07,02,09,17,17.40
2006,07,02,09,18,17.40
2006,07,02,09,19,17.40
2006,07,02,09,20,17.40
2006,07,02,09,21,17.40
2006,07,02,09,22,17.30
2006,07,02,09,23,17.30
2006,07,02,09,24,17.30
2006,07,02,09,25,17.30
2006,07,02,09,26,17.30
2006,07,02,09,27,17.30
2006,07,02,09,28,17.30
2006,07,02,09,29,17.30
2006,07,02,09,30,17.30
2006,07,02,09,31,17.30
2006,07,02,09,32,17.30
2006,07,02,09,33,17.30
2006,07,02,09,34,17.30
2006,07,02,09,35,17.30
2006,07,02,09,36,17.30
2006,07,02,09,37,17.30
2006,07,02,09,38,17.30
2006,07,02,09,39,17.40
2006,07,02,09,40,17.40
2006,07,02,09,41,17.40
2006,07,02,09,42,17.40
2006,07,02,09,43,17.40
2006,07,02,09,44,17.40
2006,07,02,09,45,17.50
2006,07,02,09,46,17.50
2006,07,02,09,47,17.50
2006,07,02,09,48,17.50
2006,07,02,09,49,17.50
2006,07,02,09,50,17.50
2006,07,02,09,51,17.60
2006,07,02,09,52,17.60
2006,07,02,09,53,17.60
2006,07,02,09,54,17.60
2006,07,02,09,55,17.70
2006,07,02,09,56,17.70
2006,07,02,09,57,17.80
2006,07,02,09,58,17.80
2006,07,02,09,59,17.80
2006,07,02,10,00,17.90
2006,07,02,10,01,17.90
2006,07,02,10,02,17.90
2006,07,02,10,03,18.00
2006,07,02,10,04,18.10
2006,07,02,10,05,18.10
2006,07,02,10,06,18.20
2006,07,02,10,07,18.20
2006,07,02,10,08,18.40
2006,07,02,10,09,18.40
2006,07,02,10,10,18.50
2006,07,02,10,11,18.50
2006,07,02,10,12,18.60
2006,07,02,10,13,18.70
2006,07,02,10,14,18.80
2006,07,02,10,15,18.90
2006,07,02,10,16,19.00
2006,07,02,10,17,19.10
2006,07,02,10,18,19.10
2006,07,02,10,19,19.10
2006,07,02,10,20,19.20
2006,07,02,10,21,19.30
2006,07,02,10,22,19.40
2006,07,02,10,23,19.40
2006,07,02,10,24,19.40
2006,07,02,10,25,19.40
2006,07,02,10,26,19.40
2006,07,02,10,27,19.40
2006,07,02,10,28,19.50
2006,07,02,10,29,19.60
2006,07,02,10,30,19.70
2006,07,02,10,31,19.80
2006,07,02,10,32,19.80
2006,07,02,10,33,19.90
2006,07,02,10,34,19.90
2006,07,02,10,35,19.80
2006,07,02,10,36,19.80
2006,07,02,10,37,19.90
2006,07,02,10,38,19.90
2006,07,02,10,39,19.80
2006,07,02,10,40,19.70
2006,07,02,10,41,19.70
2006,07,02,10,42,19.70
2006,07,02,10,43,19.80
2006,07,02,10,44,19.80
2006,07,02,10,45,19.70
2006,07,02,10,46,19.70
2006,07,02,10,47,19.70
2006,07,02,10,48,19.70
2006,07,02,10,49,19.60
2006,07,02,10,50,19.60
2006,07,02,10,51,19.60
2006,07,02,10,52,19.60
2006,07,02,10,53,19.70
2006,07,02,10,54,19.80
2006,07,02,10,55,19.90
2006,07,02,10,56,19.90
2006,07,02,10,57,19.90
2006,07,02,10,58,19.80
2006,07,02,10,59,19.70
2006,07,02,11,00,19.70
2006,07,02,11,01,19.70
2006,07,02,11,02,19.80
2006,07,02,11,03,19.70
2006,07,02,11,04,19.60
2006,07,02,11,05,19.60
2006,07,02,11,06,19.60
2006,07,02,11,07,19.60
2006,07,02,11,08,19.70
2006,07,02,11,09,19.60
2006,07,02,11,10,19.60
2006,07,02,11,11,19.50
2006,07,02,11,12,19.40
2006,07,02,11,13,19.30
2006,07,02,11,14,19.20
2006,07,02,11,15,19.30
2006,07,02,11,16,19.30
2006,07,02,11,17,19.30
2006,07,02,11,18,19.40
2006,07,02,11,19,19.40
2006,07,02,11,20,19.40
2006,07,02,11,21,19.40
2006,07,02,11,22,19.40
2006,07,02,11,23,19.30
2006,07,02,11,24,19.20
2006,07,02,11,25,19.10
2006,07,02,11,26,19.20
2006,07,02,11,27,19.30
2006,07,02,11,28,19.40
2006,07,02,11,29,19.40
2006,07,02,11,30,19.40
2006,07,02,11,31,19.40
2006,07,02,11,32,19.50
2006,07,02,11,33,19.50
2006,07,02,11,34,19.40
2006,07,02,11,35,19.30
2006,07,02,11,36,19.30
2006,07,02,11,37,19.20
2006,07,02,11,38,19.30
2006,07,02,11,39,19.30
2006,07,02,11,40,19.30
2006,07,02,11,41,19.20
2006,07,02,11,42,19.40
2006,07,02,11,43,19.40
2006,07,02,11,44,19.40
2006,07,02,11,45,19.30
2006,07,02,11,46,19.30
2006,07,02,11,47,19.20
2006,07,02,11,48,19.20
2006,07,02,11,49,19.30
2006,07,02,11,50,19.30
2006,07,02,11,51,19.40
2006,07,02,11,52,19.40
2006,07,02,11,53,19.20
2006,07,02,11,54,19.20
2006,07,02,11,55,19.10
2006,07,02,11,56,19.10
2006,07,02,11,57,19.20
2006,07,02,11,58,19.30
2006,07,02,11,59,19.40
2006,07,02,12,00,19.60
2006,07,02,12,01,19.70
2006,07,02,12,02,19.70
2006,07,02,12,03,19.80
2006,07,02,12,04,19.70
2006,07,02,12,05,19.60
2006,07,02,12,06,19.60
2006,07,02,12,07,19.50
2006,07,02,12,08,19.50
2006,07,02,12,09,19.60
2006,07,02,12,10,19.80
2006,07,02,12,11,19.90
2006,07,02,12,12,20.00
2006,07,02,12,13,20.20
2006,07,02,12,14,20.30
2006,07,02,12,15,20.50
2006,07,02,12,16,20.50
2006,07,02,12,17,20.60
2006,07,02,12,18,20.70
2006,07,02,12,19,20.70
2006,07,02,12,20,20.60
2006,07,02,12,21,20.50
2006,07,02,12,22,20.30
2006,07,02,12,23,20.30
2006,07,02,12,24,20.30
2006,07,02,12,25,20.40
2006,07,02,12,26,20.40
2006,07,02,12,27,20.40
2006,07,02,12,28,20.40
2006,07,02,12,29,20.50
2006,07,02,12,30,20.50
2006,07,02,12,31,20.50
2006,07,02,12,32,20.50
2006,07,02,12,33,20.60
2006,07,02,12,34,20.60
2006,07,02,12,35,20.60
2006,07,02,12,36,20.70
2006,07,02,12,37,20.80
2006,07,02,12,38,20.80
2006,07,02,12,39,20.80
2006,07,02,12,40,20.80
2006,07,02,12,41,20.80
2006,07,02,12,42,20.80
2006,07,02,12,43,20.80
2006,07,02,12,44,20.80
2006,07,02,12,45,20.80
2006,07,02,12,46,20.80
2006,07,02,12,47,20.80
2006,07,02,12,48,20.80
2006,07,02,12,49,20.90
2006,07,02,12,50,20.80
2006,07,02,12,51,20.70
2006,07,02,12,52,20.60
2006,07,02,12,53,20.60
2006,07,02,12,54,20.60
2006,07,02,12,55,20.60
2006,07,02,12,56,20.70
2006,07,02,12,57,20.70
2006,07,02,12,58,20.70
2006,07,02,12,59,20.80
2006,07,02,13,00,21.00
2006,07,02,13,01,21.20
2006,07,02,13,02,21.20
2006,07,02,13,03,21.20
2006,07,02,13,04,21.30
2006,07,02,13,05,21.30
2006,07,02,13,06,21.20
2006,07,02,13,07,21.20
2006,07,02,13,08,21.30
2006,07,02,13,09,21.40
2006,07,02,13,10,21.60
2006,07,02,13,11,21.60
2006,07,02,13,12,21.60
2006,07,02,13,13,21.60
2006,07,02,13,14,21.60
2006,07,02,13,15,21.60
2006,07,02,13,16,21.60
2006,07,02,13,17,21.60
2006,07,02,13,18,21.60
2006,07,02,13,19,21.60
2006,07,02,13,20,21.70
2006,07,02,13,21,21.80
2006,07,02,13,22,21.70
2006,07,02,13,23,21.80
2006,07,02,13,24,21.70
2006,07,02,13,25,21.70
2006,07,02,13,26,21.60
2006,07,02,13,27,21.60
2006,07,02,13,28,21.60
2006,07,02,13,29,21.60
2006,07,02,13,30,21.60
2006,07,02,13,31,21.70
2006,07,02,13,32,21.70
2006,07,02,13,33,21.80
2006,07,02,13,34,21.70
2006,07,02,13,35,21.80
2006,07,02,13,36,21.90
2006,07,02,13,37,22.00
2006,07,02,13,38,22.10
2006,07,02,13,39,22.30
2006,07,02,13,40,22.50
2006,07,02,13,41,22.60
2006,07,02,13,42,22.60
2006,07,02,13,43,22.60
2006,07,02,13,44,22.60
2006,07,02,13,45,22.60
2006,07,02,13,46,22.60
2006,07,02,13,47,22.70
2006,07,02,13,48,22.60
2006,07,02,13,49,22.50
2006,07,02,13,50,22.50
2006,07,02,13,51,22.50
2006,07,02,13,52,22.60
2006,07,02,13,53,22.70
2006,07,02,13,54,22.70
2006,07,02,13,55,22.80
2006,07,02,13,56,22.80
2006,07,02,13,57,22.80
2006,07,02,13,58,22.90
2006,07,02,13,59,22.80
2006,07,02,14,00,22.80
2006,07,02,14,01,22.80
2006,07,02,14,02,22.80
2006,07,02,14,03,22.90
2006,07,02,14,04,22.90
2006,07,02,14,05,22.90
2006,07,02,14,06,22.90
2006,07,02,14,07,22.90
2006,07,02,14,08,22.90
2006,07,02,14,09,22.90
2006,07,02,14,10,22.90
2006,07,02,14,11,22.90
2006,07,02,14,12,22.90
2006,07,02,14,13,22.90
2006,07,02,14,14,22.90
2006,07,02,14,15,23.00
2006,07,02,14,16,23.10
2006,07,02,14,17,23.10
2006,07,02,14,18,23.20
2006,07,02,14,19,23.20
2006,07,02,14,20,23.20
2006,07,02,14,21,23.30
2006,07,02,14,22,23.30
2006,07,02,14,23,23.30
2006,07,02,14,24,23.30
2006,07,02,14,25,23.30
2006,07,02,14,26,23.40
2006,07,02,14,27,23.40
2006,07,02,14,28,23.40
2006,07,02,14,29,23.40
2006,07,02,14,30,23.60
2006,07,02,14,31,23.70
2006,07,02,14,32,23.80
2006,07,02,14,33,23.80
2006,07,02,14,34,23.80
2006,07,02,14,35,23.90
2006,07,02,14,36,24.00
2006,07,02,14,37,24.10
2006,07,02,14,38,24.10
2006,07,02,14,39,24.10
2006,07,02,14,40,24.00
2006,07,02,14,41,23.90
2006,07,02,14,42,23.90
2006,07,02,14,43,24.00
2006,07,02,14,44,24.10
2006,07,02,14,45,24.10
2006,07,02,14,46,24.20
2006,07,02,14,47,24.10
2006,07,02,14,48,24.10
2006,07,02,14,49,24.20
2006,07,02,14,50,24.40
2006,07,02,14,51,24.40
2006,07,02,14,52,24.30
2006,07,02,14,53,24.40
2006,07,02,14,54,24.30
2006,07,02,14,55,24.30
2006,07,02,14,56,24.30
2006,07,02,14,57,24.20
2006,07,02,14,58,24.10
2006,07,02,14,59,24.10
2006,07,02,15,00,24.10
2006,07,02,15,01,24.00
2006,07,02,15,02,23.90
2006,07,02,15,03,23.90
2006,07,02,15,04,23.90
2006,07,02,15,05,23.90
2006,07,02,15,06,23.90
2006,07,02,15,07,24.00
2006,07,02,15,08,24.10
2006,07,02,15,09,24.10
2006,07,02,15,10,24.10
2006,07,02,15,11,24.10
2006,07,02,15,12,24.10
2006,07,02,15,13,24.20
2006,07,02,15,14,24.40
2006,07,02,15,15,24.50
2006,07,02,15,16,24.60
2006,07,02,15,17,24.70
2006,07,02,15,18,24.80
2006,07,02,15,19,24.70
2006,07,02,15,20,24.60
2006,07,02,15,21,24.60
2006,07,02,15,22,24.60
2006,07,02,15,23,24.60
2006,07,02,15,24,24.60
2006,07,02,15,25,24.50
2006,07,02,15,26,24.50
2006,07,02,15,27,24.40
2006,07,02,15,28,24.30
2006,07,02,15,29,24.30
2006,07,02,15,30,24.40
2006,07,02,15,31,24.50
2006,07,02,15,32,24.70
2006,07,02,15,33,24.70
2006,07,02,15,34,24.80
2006,07,02,15,35,24.90
2006,07,02,15,36,25.00
2006,07,02,15,37,25.10
2006,07,02,15,38,25.20
2006,07,02,15,39,25.10
2006,07,02,15,40,25.00
2006,07,02,15,41,24.80
2006,07,02,15,42,24.80
2006,07,02,15,43,24.70
2006,07,02,15,44,24.70
2006,07,02,15,45,24.80
2006,07,02,15,46,24.90
2006,07,02,15,47,24.90
2006,07,02,15,48,25.00
2006,07,02,15,49,25.10
2006,07,02,15,50,25.20
2006,07,02,15,51,25.30
2006,07,02,15,52,25.40
2006,07,02,15,53,25.50
2006,07,02,15,54,25.60
2006,07,02,15,55,25.70
2006,07,02,15,56,25.80
2006,07,02,15,57,26.00
2006,07,02,15,58,26.10
2006,07,02,15,59,26.40
2006,07,02,16,00,26.50
2006,07,02,16,01,26.60
2006,07,02,16,02,26.60
2006,07,02,16,03,26.70
2006,07,02,16,04,26.80
2006,07,02,16,05,27.00
2006,07,02,16,06,27.10
2006,07,02,16,07,27.30
2006,07,02,16,08,27.30
2006,07,02,16,09,27.40
2006,07,02,16,10,27.50
2006,07,02,16,11,27.60
2006,07,02,16,12,27.60
2006,07,02,16,13,27.60
2006,07,02,16,14,27.60
2006,07,02,16,15,27.60
2006,07,02,16,16,27.60
2006,07,02,16,17,27.40
2006,07,02,16,18,27.50
2006,07,02,16,19,27.60
2006,07,02,16,20,27.70
2006,07,02,16,21,27.80
2006,07,02,16,22,27.90
2006,07,02,16,23,27.90
2006,07,02,16,24,28.00
2006,07,02,16,25,28.00
2006,07,02,16,26,28.00
2006,07,02,16,27,28.00
2006,07,02,16,28,28.00
2006,07,02,16,29,28.00
2006,07,02,16,30,28.00
2006,07,02,16,31,28.00
2006,07,02,16,32,28.00
2006,07,02,16,33,28.00
2006,07,02,16,34,28.00
2006,07,02,16,35,28.10
2006,07,02,16,36,28.10
2006,07,02,16,37,28.10
2006,07,02,16,38,28.00
2006,07,02,16,39,27.90
2006,07,02,16,40,27.90
2006,07,02,16,41,27.90
2006,07,02,16,42,27.80
2006,07,02,16,43,27.80
2006,07,02,16,44,27.80
2006,07,02,16,45,27.90
2006,07,02,16,46,27.90
2006,07,02,16,47,28.00
2006,07,02,16,48,28.00
2006,07,02,16,49,28.00
2006,07,02,16,50,28.00
2006,07,02,16,51,27.90
2006,07,02,16,52,27.90
2006,07,02,16,53,28.00
2006,07,02,16,54,28.10
2006,07,02,16,55,28.20
2006,07,02,16,56,28.20
2006,07,02,16,57,28.10
2006,07,02,16,58,28.10
2006,07,02,16,59,28.10
2006,07,02,17,00,28.10
2006,07,02,17,01,28.20
2006,07,02,17,02,28.30
2006,07,02,17,03,28.50
2006,07,02,17,04,28.60
2006,07,02,17,05,28.60
2006,07,02,17,06,28.60
2006,07,02,17,07,28.70
2006,07,02,17,08,28.70
2006,07,02,17,09,28.80
2006,07,02,17,10,28.80
2006,07,02,17,11,28.80
2006,07,02,17,12,28.80
2006,07,02,17,13,28.70
2006,07,02,17,14,28.60
2006,07,02,17,15,28.60
2006,07,02,17,16,28.60
2006,07,02,17,17,28.60
2006,07,02,17,18,28.60
2006,07,02,17,19,28.60
2006,07,02,17,20,28.60
2006,07,02,17,21,28.60
2006,07,02,17,22,28.60
2006,07,02,17,23,28.60
2006,07,02,17,24,28.60
2006,07,02,17,25,28.70
2006,07,02,17,26,28.70
2006,07,02,17,27,28.70
2006,07,02,17,28,28.70
2006,07,02,17,29,28.70
2006,07,02,17,30,28.70
2006,07,02,17,31,28.70
2006,07,02,17,32,28.70
2006,07,02,17,33,28.70
2006,07,02,17,34,28.70
2006,07,02,17,35,28.70
2006,07,02,17,36,28.70
2006,07,02,17,37,28.80
2006,07,02,17,38,28.80
2006,07,02,17,39,28.80
2006,07,02,17,40,28.70
2006,07,02,17,41,28.60
2006,07,02,17,42,28.60
2006,07,02,17,43,28.60
2006,07,02,17,44,28.60
2006,07,02,17,45,28.60
2006,07,02,17,46,28.60
2006,07,02,17,47,28.60
2006,07,02,17,48,28.60
2006,07,02,17,49,28.60
2006,07,02,17,50,28.60
2006,07,02,17,51,28.60
2006,07,02,17,52,28.50
2006,07,02,17,53,28.60
2006,07,02,17,54,28.60
2006,07,02,17,55,28.60
2006,07,02,17,56,28.60
2006,07,02,17,57,28.60
2006,07,02,17,58,28.50
2006,07,02,17,59,28.40
2006,07,02,18,00,28.40
2006,07,02,18,01,28.40
2006,07,02,18,02,28.40
2006,07,02,18,03,28.40
2006,07,02,18,04,28.40
2006,07,02,18,05,28.30
2006,07,02,18,06,28.20
2006,07,02,18,07,28.00
2006,07,02,18,08,27.90